Regional Weather Roundup
Issued by NWS

Home | Current Version | Previous Version | Text Only | Print | Product List | Glossary On
Versions: 1 2 3 4 5 6 7 8 9 10 11 12 13 14 15 16 17 18 19 20 21 22 23 24 25 26 27 28 29 30 31 32 33 34 35 36 37 38 39 40 41 42 43 44 45 46 47 48 49 50
000
ASUS43 KTOP 190259
RWRKS

WEATHER ROUNDUP FOR KANSAS
NATIONAL WEATHER SERVICE GOODLAND KS
900 PM CST WED JAN 18 2017

NOTE:  "FAIR" INDICATES FEW OR NO CLOUDS BELOW 12,000 FEET WITH NO
SIGNIFICANT WEATHER AND/OR OBSTRUCTIONS TO VISIBILITY.

KSZ001>006-013>018-027>032-041>047-190400-
NORTHWEST KANSAS

CITY           SKY/WX    TMP DP  RH WIND       PRES   REMARKS
GOODLAND       CLOUDY    36  30  79 S7        29.75F
HILL CITY      CLOUDY    43  40  89 S8        29.81F
RUSSELL        CLEAR     41  37  86 SE14      29.83F
$$

KSZ061>065-074>080-084>089-190400-
SOUTHWEST KANSAS

CITY           SKY/WX    TMP DP  RH WIND       PRES   REMARKS
DODGE CITY     CLEAR     43  41  93 S17       29.82F
ELKHART          N/A     42  30  62 S8          N/A
GARDEN CITY    CLOUDY    42  39  89 SE15      29.77F
GREAT BEND     CLEAR     42  39  89 SE13      29.86F
LIBERAL        CLEAR     43  36  75 S10       29.79F
$$

KSZ066>073-081>083-090>101-190400-
SOUTHEAST KANSAS

CITY           SKY/WX    TMP DP  RH WIND       PRES   REMARKS
CHANUTE        CLOUDY    47  41  80 SE8       29.96F
COFFEYVILLE    CLOUDY    48  44  86 S7        29.97F
HUTCHINSON     CLEAR     41  37  86 SE8       29.90F
MEDICINE LODGE   N/A     46  43  89 S9        29.88F
NEWTON         CLOUDY    43  37  79 SE10      29.91F
PARSONS        CLOUDY    48  43  82 S5        29.97F
WICHITA INTL   CLOUDY    46  38  73 SE7       29.92F
WICHITA JABRA  CLOUDY    46  38  73 S7        29.92F
WINFIELD       CLOUDY    48  39  71 SE6       29.94F
$$

KSZ007>012-019>026-033>040-048>060-102>105-190400-
NORTHEAST KANSAS

CITY           SKY/WX    TMP DP  RH WIND       PRES   REMARKS
CONCORDIA      CLOUDY    42  36  79 S10       29.87F
EMPORIA        MOCLDY    40  37  89 SE8       29.94S
LAWRENCE       CLEAR     36  36 100 SE3       29.97F
MANHATTAN      CLOUDY    41  33  73 CALM      29.92S
OLATHE IND     CLEAR     39  37  92 E6        29.96F
OLATHE EXE     MOCLDY    39  39 100 SE5       29.96F
SALINA         CLEAR     46  39  76 S14       29.89F
TOPEKA BILLARD CLEAR     39  34  82 SE3       29.95F
TOPEKA FORBES  CLEAR     38  35  89 SE6       29.95S
$$




USA.gov is the U.S. government's official web portal to all federal, state and local government web resources and services.